Home   Weather   Rodez   Past weeks

Flag for France Past Weather in Rodez, Midi-Pyrénées, France — Yesterday and Last 2 Weeks

Now
21 °F

Clear.


Feels Like: 16 °F
Forecast: 20 / 36 °F
Wind: 3 mph from North

Location: Rodez Airport

Current Time: Jan 24, 2017 at 6:26:04 am

Latest Report: Jan 24, 2017 at 6:00 am


Visibility: 10 mi

Pressure: 30.12 "Hg (27.75 "Hg at 642m altitude)

Humidity: 93%

Dew Point: 19 °F

Location of RodezLocation

Past Weather in Rodez — Graph

°F

Rodez Temperature Yesterday

Maximum temperature yesterday: 46 °F (at 1:00 pm)
Minimum temperature yesterday: 27 °F (at 11:30 pm)
Average temperature yesterday: 36 °F

High & Low Weather Summary for the Past Weeks

 TemperatureHumidityPressure
High50 °F (Jan 21, 2:30 pm)100% (Jan 9, 9:30 am)30.36 "Hg (Jan 9, 9:30 am)
Low10 °F (Jan 19, 8:30 am)34% (Jan 21, 4:30 pm)29.83 "Hg (Jan 10, 10:00 am)
Average32 °F82%30.12 "Hg
* Reported Jan 9 5:00 am — Jan 24 5:00 am, Rodez, Weather by CustomWeather, © 2017

Note: Actual official high and low records may vary slightly from our data, if they occured in-between our weather recording intervals... More about our weather records

Advertising

Rodez Weather History for the Previous 24 Hours

Scroll right to see more
 ConditionsComfort  
Time TempWeatherWind HumidityBarometerVisibility
5:00 am
Tue, Jan 24
21 °FClear.2 mph86%30.12 "Hg10 mi
4:30 am19 °FClear.5 mph93%30.12 "Hg10 mi
4:00 am19 °FClear.1 mph93%30.12 "Hg10 mi
3:30 am21 °FClear.2 mph93%30.12 "Hg10 mi
3:00 am21 °FClear.2 mph86%30.12 "Hg10 mi
2:30 am23 °FClear.No wind93%30.12 "Hg10 mi
2:00 am23 °FClear.1 mph100%30.12 "Hg10 mi
1:30 am23 °FClear.No wind86%30.12 "Hg10 mi
1:00 am25 °FClear.1 mph80%30.12 "Hg10 mi
12:30 am28 °FClear.2 mph93%30.12 "Hg10 mi
12:00 am25 °FClear.2 mph86%30.12 "Hg10 mi
11:30 pm
Mon, Jan 23
27 °FClear.1 mph86%30.12 "Hg10 mi
11:00 pm28 °FClear.5 mph80%30.12 "Hg10 mi
10:30 pm28 °FClear.1 mph80%30.12 "Hg10 mi
10:00 pm32 °FClear.5 mph75%30.12 "Hg10 mi
9:30 pm34 °FClear.No wind70%30.12 "Hg10 mi
9:00 pm36 °FClear.3 mph70%30.12 "Hg10 mi
8:30 pm32 °FClear.2 mph75%30.12 "Hg10 mi
8:00 pm34 °FClear.3 mph75%30.12 "Hg10 mi
7:30 pm34 °FClear.2 mph70%30.12 "Hg10 mi
7:00 pm36 °FClear.2 mph70%30.12 "Hg10 mi
6:30 pm37 °FClear.2 mph65%30.09 "Hg10 mi
6:00 pm37 °FClear.6 mph65%30.09 "Hg10 mi
5:30 pm39 °FSunny.6 mph61%30.09 "Hg10 mi
5:00 pm41 °FSunny.6 mph61%30.09 "Hg10 mi
4:30 pm43 °FSunny.8 mph57%30.09 "Hg10 mi
4:00 pm43 °FSunny.10 mph53%30.09 "Hg10 mi
3:30 pm45 °FSunny.10 mph53%30.07 "Hg10 mi
3:00 pm46 °FSunny.9 mph53%30.07 "Hg10 mi
2:30 pm46 °FSunny.9 mph57%30.07 "Hg10 mi
2:00 pm46 °FPassing clouds.7 mph53%30.09 "HgN/A
1:30 pm46 °FSunny.7 mph57%30.09 "Hg10 mi
1:00 pm46 °FSunny.7 mph57%30.09 "Hg10 mi
12:30 pm43 °FPassing clouds.6 mph66%30.12 "HgN/A
12:00 pm43 °FPassing clouds.6 mph66%30.12 "HgN/A
11:30 am41 °FSunny.5 mph70%30.12 "Hg10 mi
11:00 am39 °FSunny.No wind75%30.12 "Hg10 mi
10:30 am36 °FSunny.1 mph100%30.12 "Hg10 mi
10:00 am32 °FClear.3 mph93%30.12 "Hg5 mi
9:30 am30 °FClear.3 mph100%30.12 "Hg6 mi
9:00 am28 °FClear.2 mph100%30.12 "Hg4 mi
8:30 am28 °FIce fog.1 mph93%30.09 "Hg3 mi
8:00 am30 °FClear.3 mph93%30.09 "Hg4 mi
7:30 am30 °FClear.No wind93%30.09 "Hg6 mi
7:00 am30 °FClear.3 mph93%30.09 "Hg5 mi
6:30 am32 °FClear.No wind93%30.09 "Hg6 mi
6:00 am32 °FClear.No wind100%30.09 "Hg5 mi
Weather by CustomWeather, © 2017

See weather overviewHow to use our weather pages